Theta_e
336 343 349 350 349 346 348 349 346 341 339 342 342 341 341 341 341 339 339 339 339 340 339 339 337 337 336 335 338 339 338 336 340 342 340 340 343 344 344 344 345 343 343
344 346 348 348 340 335 345 343 345 344 343 344 344 346 344 343 343 342 341 341 341 340 340 339 337 337 337 336 339 338 337 336 340 341 339 340 342 342 342 343 344 342 342
343 342 346 337 338 344 345 337 340 344 345 344 345 344 346 346 345 342 342 341 340 339 340 340 339 338 337 336 336 339 337 335 337 339 339 340 340 340 341 340 342 343 343
338 338 340 336 335 344 344 334 335 340 346 345 345 345 346 342 338 338 337 336 337 337 338 338 337 337 336 336 336 337 339 335 335 337 338 339 338 339 340 340 342 342 342
338 338 342 339 341 335 344 336 340 343 346 347 346 342 336 335 335 335 335 334 336 336 336 336 336 335 336 337 336 337 339 339 336 337 337 339 339 340 339 338 338 339 336
338 339 338 338 336 336 341 337 340 343 343 345 339 336 335 336 337 336 336 337 337 338 337 337 337 335 336 337 337 336 338 337 338 337 338 338 338 338 336 337 338 336 334
343 348 343 339 341 344 345 340 342 344 342 339 337 334 336 336 336 336 336 336 337 337 336 335 335 336 337 338 337 336 337 338 339 339 338 338 338 338 337 337 338 337 335
350 348 347 344 345 346 337 341 346 343 339 338 335 335 335 332 334 336 336 336 336 337 337 335 335 336 337 337 337 337 337 338 338 339 339 339 339 338 337 338 338 336 336
350 351 349 346 345 345 346 345 344 339 339 339 335 335 334 333 332 334 336 337 336 335 335 336 336 336 338 338 336 336 336 337 337 338 338 339 339 338 337 338 338 336 338
339 346 346 345 348 347 344 343 337 338 337 339 336 334 334 334 333 332 334 334 336 338 337 336 337 337 337 337 338 336 336 336 336 337 338 339 339 338 339 339 337 337 338
333 347 347 345 344 343 341 338 339 338 337 338 338 335 335 336 335 333 332 332 335 337 336 336 336 337 338 338 337 336 336 337 337 338 339 339 339 339 339 339 338 337 338
346 347 345 342 342 341 338 340 340 335 335 338 338 338 338 338 335 333 333 332 334 337 338 336 337 338 338 338 337 336 336 337 338 339 338 339 338 338 338 338 337 336 336
346 346 344 344 343 342 342 343 342 339 338 338 339 339 337 338 337 334 333 332 335 336 337 337 336 337 337 338 338 338 338 339 339 339 339 338 338 339 338 337 335 336 336
344 343 343 344 344 344 344 343 343 339 341 341 340 338 336 338 338 336 333 333 334 334 335 336 337 337 337 337 337 336 336 336 337 336 336 336 335 333 333 333 334 335 336
345 344 344 343 343 344 344 343 343 339 341 342 341 339 337 337 337 337 334 332 333 332 332 333 333 334 334 334 334 335 335 335 335 336 336 334 332 332 333 333 334 333 332
340 343 344 344 346 345 346 345 345 341 341 342 342 340 338 336 335 336 334 333 332 331 332 333 332 333 332 332 332 333 333 333 333 333 333 333 332 332 332 331 331 331 331
337 343 344 345 347 347 345 345 345 345 343 342 343 341 339 337 335 333 332 333 333 333 333 332 332 331 331 330 330 330 331 331 332 331 331 331 331 331 331 331 331 328 328
344 344 343 344 342 344 344 344 344 344 343 342 342 342 339 337 335 332 333 332 331 331 331 331 331 331 330 330 328 327 327 328 329 328 326 326 326 325 323 322 322 324 327
344 344 344 343 343 342 341 339 338 336 337 340 342 342 340 338 336 333 334 332 330 327 324 325 328 330 329 327 326 326 326 327 326 324 323 322 322 318 314 314 315 316 317
339 343 342 341 339 336 330 327 327 327 328 332 342 341 340 338 336 334 335 333 331 329 325 323 325 329 328 326 325 324 324 325 324 321 320 318 317 315 314 315 313 313 313
340 339 337 334 329 327 327 327 330 331 333 333 338 340 339 338 336 335 335 333 332 330 329 327 326 326 325 325 325 324 324 323 322 320 318 316 316 316 316 315 314 315 315
336 333 329 327 327 328 329 330 332 332 332 332 332 338 339 337 336 335 335 333 331 329 328 328 326 325 325 324 323 322 316 315 316 316 316 315 313 312 314 315 314 312 312
327 325 326 326 327 329 330 331 331 331 331 333 333 335 333 333 332 333 331 331 330 328 327 326 323 322 320 320 318 318 317 310 311 312 313 314 312 310 307 307 304 305 306
325 325 325 325 327 328 329 329 329 329 331 330 330 330 329 328 324 324 324 326 326 325 324 322 320 319 318 317 316 315 313 313 313 312 308 305 303 302 302 301 301 301 301
324 325 325 325 326 326 326 326 327 328 328 327 327 325 324 324 324 323 321 321 321 319 319 318 318 318 316 315 314 312 309 306 305 304 303 303 302 301 301 301 300 300 300
323 323 323 324 325 325 326 325 324 325 325 325 323 322 322 321 321 320 319 317 316 315 314 315 312 312 310 307 306 305 303 303 302 302 302 301 301 301 300 300 300 300 299
Wind_Speed
19 20 20 24 18 11 23 26 21 13 16 16 16 16 19 18 19 19 17 18 19 18 18 18 20 19 19 19 21 21 21 17 16 17 14 14 11 13 13 13 14 14 16
21 17 25 27 27 25 20 14 17 17 20 17 18 17 19 20 21 22 21 20 21 21 21 21 20 19 18 19 20 22 22 20 19 18 18 11 13 14 14 15 16 14 15
23 19 19 16 17 21 19 13 25 15 16 17 19 18 20 22 23 23 21 23 24 23 20 20 19 19 21 20 22 24 25 24 21 22 11 7 7 14 16 16 16 15 14
16 18 14 13 24 18 15 12 32 23 13 15 14 17 19 21 22 21 20 20 21 23 20 21 21 20 21 23 22 25 25 26 23 22 24 13 8 8 8 13 15 15 12
12 17 16 14 12 15 19 17 11 12 9 14 13 14 12 15 18 18 18 16 17 19 19 21 21 19 20 21 22 25 25 25 25 23 27 24 12 10 8 9 13 13 13
25 23 18 25 17 23 11 19 15 7 12 9 7 8 9 11 13 9 9 9 9 13 18 19 21 19 17 21 23 25 26 26 24 27 27 26 25 22 21 18 17 16 16
22 19 22 26 19 16 14 14 13 12 9 5 3 5 4 7 8 8 7 7 3 2 5 10 14 14 14 18 19 23 24 25 25 24 30 26 23 22 20 20 18 16 14
14 13 11 21 19 12 14 15 16 12 9 5 1 1 3 10 12 12 10 7 7 3 2 6 9 10 12 15 18 20 22 22 24 23 23 23 23 21 20 21 19 15 14
7 7 13 15 11 17 16 16 13 12 12 8 2 1 5 9 12 12 12 11 8 4 2 2 5 6 9 12 16 18 20 20 21 21 20 21 22 22 23 22 20 18 11
8 11 16 9 14 13 12 9 8 7 8 6 4 4 6 9 9 11 11 12 10 7 3 0 3 5 7 10 13 14 15 16 18 18 20 21 22 21 22 21 18 15 12
33 27 27 18 11 13 12 10 6 4 5 5 4 4 3 7 7 8 10 11 11 9 8 5 1 2 5 6 8 12 11 12 13 15 18 20 20 20 20 20 21 20 16
33 31 22 22 14 12 12 7 4 5 4 3 3 4 5 7 8 7 10 10 9 8 8 9 7 7 5 4 6 8 9 11 12 13 15 17 18 22 19 17 19 17 17
27 24 22 17 17 15 11 6 2 3 3 4 3 2 3 5 7 6 9 9 7 8 8 8 10 10 11 9 6 3 3 4 7 9 10 11 12 15 15 14 13 12 14
22 25 22 18 14 13 10 5 3 5 3 2 4 3 3 3 5 5 5 6 7 9 9 10 10 10 10 9 8 5 2 3 5 6 6 8 8 9 9 14 13 11 10
23 23 18 15 14 14 12 8 7 7 6 3 4 4 6 2 3 3 2 3 6 7 10 10 10 10 10 11 10 9 5 4 8 11 13 13 13 12 10 9 9 7 6
22 17 13 8 11 14 11 10 9 10 10 10 6 3 5 5 4 3 2 3 4 4 5 6 8 7 7 9 7 7 4 2 1 0 1 2 3 5 6 7 5 7 9
16 15 11 9 8 11 12 12 13 14 14 14 14 12 10 8 6 3 4 3 3 3 3 4 6 6 7 7 6 5 3 3 5 4 4 2 1 1 3 2 2 3 5
15 15 11 11 13 10 12 12 12 12 10 14 17 17 16 13 9 8 7 6 5 3 2 2 3 4 7 9 9 8 6 4 4 6 6 7 8 9 8 6 5 5 3
16 13 13 11 11 10 11 13 13 13 12 12 17 20 21 18 13 12 11 10 7 4 3 2 2 3 6 8 7 6 6 5 7 8 9 8 7 10 10 6 6 5 6
15 15 14 12 10 8 10 8 9 9 9 12 17 22 24 19 15 15 15 14 10 6 4 3 4 6 6 6 4 3 2 1 3 6 7 9 8 8 6 3 4 3 4
16 13 10 9 7 6 3 5 4 3 2 4 13 21 26 24 18 17 16 14 11 7 5 3 3 7 7 6 6 4 2 1 3 5 8 9 8 5 3 2 3 4 2
10 8 7 5 3 1 2 3 2 3 1 4 9 17 27 27 25 22 21 18 13 7 5 4 6 8 8 7 6 6 5 5 3 5 6 4 3 1 1 2 3 3 3
7 5 3 2 2 2 3 2 3 2 2 4 7 14 21 21 21 25 25 21 15 9 6 7 8 9 8 7 8 6 5 8 4 5 4 4 4 3 2 4 4 2 2
7 7 5 4 3 4 4 3 3 3 3 1 6 10 14 18 17 14 15 13 10 7 8 9 10 10 9 8 8 8 8 7 6 7 8 9 9 8 8 8 8 7 7
6 6 5 3 5 7 7 7 6 5 4 5 7 7 9 12 12 11 11 9 10 8 7 10 9 10 13 13 12 12 11 10 9 9 8 8 6 5 6 9 11 11 7
12 11 8 7 8 8 9 9 7 8 7 8 10 11 12 11 10 10 11 12 11 11 11 11 8 11 12 15 14 12 10 9 8 6 5 4 6 6 6 7 9 9 7
Wind_Direction
204 209 218 225 223 250 246 237 241 241 242 243 242 246 257 260 264 263 258 253 255 253 247 243 243 235 241 235 229 226 221 219 213 212 209 216 204 221 229 232 238 228 229
206 213 225 219 231 212 247 276 241 236 252 246 256 259 262 266 264 265 265 263 260 262 254 243 236 238 240 233 224 224 224 217 215 210 213 217 222 219 220 227 232 235 241
214 207 220 257 204 224 215 217 246 230 246 252 257 272 270 273 276 274 268 263 259 258 252 244 240 243 241 237 225 222 224 217 217 217 212 196 214 209 219 223 229 235 239
203 217 206 224 209 230 243 314 202 225 230 244 260 272 277 283 283 279 273 264 258 253 248 248 249 246 237 236 228 223 226 221 219 222 216 223 206 187 198 218 224 232 241
229 224 205 170 199 212 231 218 198 223 231 248 260 267 282 286 289 286 281 272 260 251 244 244 237 235 234 231 229 222 223 225 222 222 219 218 216 209 206 207 214 221 235
233 237 224 192 197 206 214 200 216 223 242 249 257 278 307 307 307 305 300 298 289 245 242 242 233 232 237 230 226 225 222 223 226 221 225 226 233 239 241 243 246 254 253
248 230 212 207 233 198 172 171 184 208 226 214 261 301 336 355 2 4 359 349 331 277 230 216 212 222 238 223 223 224 223 224 228 231 228 229 235 245 251 250 254 252 259
209 191 206 197 214 184 171 176 184 203 184 164 290 298 43 27 27 33 34 20 20 38 169 197 215 237 232 220 220 223 226 226 228 232 234 233 234 239 246 245 242 249 258
266 206 188 164 174 173 165 183 184 182 170 163 134 114 31 17 18 29 33 31 28 42 36 198 213 230 218 212 216 221 226 231 234 240 240 235 237 240 241 239 246 243 244
262 210 160 161 185 170 167 173 167 170 163 151 113 87 49 25 14 20 25 27 25 26 70 141 226 218 214 213 216 219 223 230 230 234 241 238 236 237 239 235 229 236 248
193 197 173 154 168 172 169 161 162 163 161 159 115 94 47 9 7 9 15 19 26 44 57 45 25 220 209 204 205 210 219 229 227 238 240 226 228 231 230 230 241 245 239
185 191 175 147 161 178 164 154 141 135 140 147 102 86 62 33 27 18 18 22 30 52 66 70 69 83 110 167 196 204 219 216 220 231 223 228 230 236 243 233 237 241 239
179 188 173 167 157 175 175 160 77 171 130 115 79 77 57 15 20 13 20 27 53 69 72 79 81 86 87 94 113 159 195 206 209 218 223 225 224 224 224 224 232 244 254
178 175 178 185 184 187 186 158 173 192 168 117 70 75 41 7 3 11 35 44 79 79 80 86 91 90 89 89 85 85 143 193 200 199 206 213 208 219 235 231 237 241 211
172 177 181 181 209 222 222 196 213 197 204 214 61 62 18 5 333 343 52 86 103 85 81 77 76 75 74 73 70 74 103 147 154 163 171 172 171 174 180 187 188 212 262
172 165 177 185 222 226 225 228 225 223 221 219 218 244 285 311 287 272 245 136 129 96 80 75 74 75 77 74 72 75 92 127 87 80 195 247 275 291 291 277 268 262 264
175 173 178 169 193 215 237 244 241 244 238 226 225 224 230 243 242 245 191 165 157 142 126 106 99 89 85 82 74 67 83 69 83 75 70 52 66 195 165 52 323 293 268
172 181 197 214 228 230 246 259 260 256 251 242 230 232 230 233 231 200 187 170 168 163 159 132 106 101 93 89 74 69 85 99 101 95 98 98 96 93 80 69 70 83 82
180 191 204 208 228 248 262 264 266 260 255 249 234 229 228 222 225 211 198 192 184 174 168 169 154 140 119 116 102 75 67 95 109 109 111 93 82 84 75 54 50 76 64
192 201 200 211 234 247 252 264 277 271 260 233 222 220 218 223 234 224 212 201 192 196 202 195 171 154 156 138 121 102 44 349 147 128 119 107 98 95 90 79 82 52 63
183 194 207 213 227 237 273 311 306 326 301 242 227 222 211 217 221 230 213 205 201 209 217 212 189 165 167 182 187 194 256 271 156 146 134 120 107 97 82 22 346 337 3
188 205 215 208 202 148 23 13 64 49 309 236 228 219 213 213 213 212 205 199 197 213 213 203 192 188 189 191 190 166 123 127 142 136 140 149 162 145 330 335 31 37 16
177 170 177 165 128 100 88 108 102 113 195 205 214 219 210 199 206 203 192 191 187 197 189 187 188 176 168 156 136 132 152 145 165 153 162 154 139 98 80 78 82 86 74
157 148 137 122 112 116 115 112 96 77 75 61 215 210 203 194 188 188 175 174 168 170 189 184 177 164 160 153 135 132 133 140 147 128 118 110 104 100 91 82 65 53 57
147 128 116 115 133 123 110 94 82 83 109 146 154 156 161 162 163 163 145 141 144 148 160 149 156 155 148 140 133 132 129 124 121 121 120 114 97 82 65 56 54 51 51
158 151 142 158 139 122 118 114 99 94 114 123 118 120 125 126 130 140 141 136 136 139 142 139 139 140 138 135 134 133 126 116 100 108 95 80 76 73 56 39 23 18 31